Temperature
13 13 13 13 13 13 13 14 14 14 14 14 14 14 14 15 15 15 15 16 16 16 16 16 16 16 16 16 16 16 16 16 16 16 16 16 16 16
13 13 13 13 13 13 13 13 14 14 14 14 14 14 14 14 15 15 15 15 15 16 16 16 16 16 16 16 16 16 16 16 16 16 16 16 16 16
13 13 13 13 13 13 13 13 13 13 14 14 13 14 14 14 14 14 14 14 15 15 15 15 15 15 15 15 15 15 16 16 16 16 16 16 16 16
13 13 13 13 13 13 13 13 13 13 13 14 13 13 13 13 14 14 14 14 14 15 15 15 15 15 15 15 15 15 15 15 15 15 15 15 15 15
13 13 13 13 13 13 13 13 13 13 13 13 13 13 13 13 13 13 13 14 14 14 14 14 15 15 15 15 15 15 15 15 15 15 15 15 15 15
13 13 13 13 13 13 13 13 13 13 13 13 13 13 13 13 13 13 13 13 13 13 14 14 14 14 14 14 14 14 14 14 14 14 14 15 15 15
13 13 13 13 13 13 12 12 12 13 13 13 13 13 13 13 13 13 13 13 13 13 13 13 13 13 13 13 14 14 14 14 14 14 14 14 14 14
13 13 13 13 13 13 13 13 13 12 13 13 13 13 13 13 13 13 13 13 13 13 13 13 13 13 13 13 13 13 13 14 14 14 14 14 14 14
14 13 13 13 13 13 13 13 13 13 13 13 13 13 13 13 12 12 12 13 13 12 12 13 13 13 12 13 13 13 13 13 13 13 13 13 13 14
14 13 13 13 13 13 13 13 12 13 13 13 12 12 12 12 12 12 12 12 12 12 12 12 12 12 12 12 12 13 13 12 13 13 13 13 13 13
14 14 13 13 13 13 13 12 12 12 13 13 12 12 12 12 12 12 12 12 12 12 12 12 12 12 12 12 12 12 12 12 12 12 12 12 12 12
14 14 14 13 13 13 13 12 12 12 12 12 12 12 12 12 12 12 12 12 12 12 11 11 11 11 12 11 11 11 11 11 11 12 12 12 12 12
14 14 14 14 14 13 13 13 12 12 12 12 12 12 12 11 12 12 11 11 11 11 11 11 11 11 11 11 11 10 10 10 10 10 11 11 11 11
14 14 14 14 14 13 13 13 13 12 12 12 12 11 11 11 11 11 11 11 11 11 11 11 11 11 11 11 11 10 10 10 10 10 10 10 10 10
13 13 13 14 14 13 13 13 13 12 12 12 12 12 11 11 11 11 11 11 11 11 11 11 10 10 10 10 10 10 10 9 9 9 9 9 9 9
13 13 13 13 13 13 13 13 12 12 12 12 12 12 11 11 11 11 11 11 10 10 11 10 10 10 10 9 9 9 9 9 9 8 8 8 8 8
13 12 12 12 13 12 12 12 12 12 11 11 11 11 11 11 11 10 10 10 10 10 10 10 10 10 10 9 9 8 8 8 8 8 8 8 8 8
12 12 12 12 12 12 12 12 12 11 11 11 11 11 11 10 10 10 10 10 10 9 9 9 9 9 9 8 9 8 7 7 7 7 7 7 7 7
11 11 12 12 12 12 12 12 12 11 11 11 11 11 10 10 10 10 10 9 9 9 9 8 8 8 8 9 8 8 7 7 7 7 7 7 7 7
11 11 11 11 12 12 12 12 11 11 11 11 11 10 10 10 10 9 9 9 9 9 8 8 8 8 8 8 7 7 8 7 7 6 6 6 6 7
10 11 11 11 11 11 11 11 11 11 11 11 10 10 10 10 9 9 9 9 9 8 8 8 8 8 8 7 7 6 6 7 7 6 6 6 5 5
10 10 10 10 11 11 11 11 11 11 10 10 10 10 10 9 9 9 9 9 8 8 7 7 8 8 7 6 6 6 5 5 5 6 6 6 5 4
9 9 9 10 10 10 10 10 10 10 10 10 10 9 9 9 9 9 8 8 8 7 7 7 7 6 6 5 5 5 4 4 4 4 4 5 5 5
Wind_Speed
2 1 1 1 1 1 1 2 1 2 2 3 2 1 1 2 1 2 3 5 4 4 5 6 6 6 7 8 8 7 7 8 8 8 9 10 10 11
2 2 2 1 1 1 1 1 2 2 1 2 1 1 1 2 1 1 2 5 5 5 5 5 6 6 6 7 7 7 7 7 8 8 8 9 9 10
2 2 2 2 1 1 1 1 2 2 2 1 1 2 2 2 1 1 2 2 4 6 5 5 5 5 6 6 6 6 6 6 6 7 7 7 9 10
2 2 2 1 2 2 1 2 2 2 2 2 2 2 2 1 1 1 1 1 2 6 5 5 4 4 5 5 6 6 6 6 6 6 6 7 8 8
3 3 2 2 2 2 2 2 2 2 2 3 2 2 2 1 1 1 1 1 2 5 6 6 5 4 4 4 5 5 5 5 5 5 5 6 7 7
4 4 4 4 3 2 2 3 2 2 2 3 3 3 2 2 2 2 2 2 1 2 2 3 5 6 5 5 4 4 5 5 5 5 5 5 5 6
6 5 5 3 2 3 3 3 3 3 3 3 3 3 3 3 3 2 2 2 2 1 2 2 3 4 5 6 5 4 4 3 3 4 4 5 5 5
7 7 6 6 7 7 5 4 4 4 4 4 4 4 4 3 2 3 3 3 2 2 2 2 2 2 2 2 5 4 3 3 2 2 2 3 4 4
9 8 6 6 7 7 8 8 7 5 5 5 5 4 4 4 4 5 4 3 2 2 2 2 2 2 2 4 6 4 3 2 1 0 1 2 3 4
11 10 9 9 9 8 8 8 7 6 6 7 5 4 3 3 4 4 3 2 2 2 2 2 2 2 2 4 7 5 4 3 2 1 1 2 3 4
12 12 11 11 8 8 9 9 8 6 4 3 2 1 2 1 2 4 4 4 4 3 2 2 2 2 2 3 6 7 6 6 5 4 3 3 4 5
11 12 12 12 10 13 12 10 10 8 8 7 7 7 6 6 6 6 5 5 4 3 3 2 2 2 2 3 3 4 5 6 6 4 4 4 5 5
12 11 11 15 13 15 14 11 9 8 8 8 7 7 7 6 6 6 5 4 4 3 3 3 3 3 2 2 2 2 1 1 2 3 4 4 4 4
13 12 11 15 17 16 14 11 8 8 8 8 8 7 7 7 6 6 5 4 3 2 3 4 3 3 3 3 3 3 2 1 1 1 1 2 2 3
13 12 9 13 15 14 15 13 12 10 10 10 9 8 8 7 6 5 6 5 4 3 2 3 3 3 4 4 3 2 2 1 1 2 2 2 2 2
14 12 11 12 12 11 11 13 12 12 11 11 10 9 8 7 7 7 7 7 6 4 3 2 2 3 3 2 3 3 2 2 1 2 2 3 3 2
12 11 12 11 12 13 12 12 12 12 12 11 10 9 9 9 8 8 7 8 7 7 6 4 3 2 1 2 3 3 3 3 2 2 3 3 3 3
12 13 14 14 14 14 14 14 13 13 13 12 12 11 11 10 9 8 8 8 8 7 6 6 5 4 4 2 2 4 3 3 2 3 4 4 4 3
13 15 15 15 15 15 14 14 14 14 13 12 12 12 11 11 10 10 9 9 8 7 6 6 6 6 7 6 4 2 3 3 3 4 4 5 5 5
14 15 15 15 14 14 14 14 13 13 13 13 13 12 12 12 11 11 10 10 9 8 7 6 6 6 6 4 3 3 3 3 3 4 4 5 6 6
13 14 14 14 14 14 14 14 14 13 14 13 13 13 13 12 12 11 11 11 10 9 9 8 5 3 3 2 3 4 4 5 3 4 5 6 6 6
12 13 13 13 13 13 13 13 13 13 14 14 13 13 13 13 13 13 12 11 11 9 9 7 7 6 6 6 5 4 4 4 6 9 8 7 5 4
12 12 12 12 12 11 12 14 15 14 14 14 14 13 13 13 12 12 12 11 10 10 9 8 7 7 6 6 5 5 5 5 4 4 5 10 14 14
Wind_Direction
333 328 313 327 301 305 272 264 242 197 179 160 154 138 135 110 175 182 162 130 150 163 174 178 177 182 190 194 195 196 199 201 209 215 217 222 229 232
306 311 316 296 306 273 258 262 276 259 188 153 154 161 175 171 183 189 155 153 161 167 167 169 173 178 182 186 189 194 200 205 211 214 218 222 228 235
262 278 287 299 272 239 231 235 241 243 202 156 157 170 190 189 167 176 188 191 154 150 159 166 169 175 185 189 189 189 195 204 217 222 222 224 232 237
264 261 261 246 254 247 235 225 219 237 222 190 184 186 199 193 187 201 206 183 165 140 153 163 167 175 182 187 191 193 199 210 219 225 231 231 236 242
250 251 257 252 241 220 229 225 214 218 226 213 196 184 208 191 184 204 205 196 186 155 167 173 168 170 170 177 189 198 205 210 218 226 238 247 247 250
242 242 245 242 244 235 224 220 218 219 216 215 205 197 199 194 210 203 193 185 199 176 171 175 169 176 172 170 181 195 205 214 222 230 237 246 251 255
238 237 234 242 303 269 255 231 218 224 217 217 214 212 207 201 207 206 209 201 186 192 201 189 186 189 178 173 172 175 182 192 211 230 240 246 252 257
239 235 225 214 218 224 245 270 278 246 231 223 224 221 222 213 206 218 211 209 196 175 220 192 201 193 188 149 123 142 158 160 170 210 234 248 259 263
244 236 228 221 213 218 208 213 231 251 264 257 241 231 227 211 208 213 216 225 217 161 224 198 180 175 145 99 115 129 138 139 129 159 263 278 280 277
240 239 233 226 216 221 219 215 220 216 221 232 241 239 228 210 218 227 218 215 205 191 227 225 188 178 151 124 114 115 115 113 104 80 23 325 303 286
238 235 234 232 195 202 225 223 221 217 200 228 313 4 67 100 232 208 201 206 209 187 190 224 207 196 178 152 130 130 121 108 94 77 52 8 322 283
235 233 226 234 197 191 220 224 224 219 207 195 201 202 204 193 208 221 217 221 220 202 174 206 204 205 193 169 163 164 146 130 121 105 75 37 352 301
234 231 225 201 206 202 221 230 225 225 215 213 209 203 201 199 197 207 216 229 231 212 167 195 212 215 220 194 194 199 208 191 182 149 120 80 35 348
239 236 226 189 199 204 213 219 200 208 223 216 213 208 203 199 196 193 191 197 222 217 186 207 221 222 227 223 214 200 208 254 291 296 299 139 132 118
241 240 227 191 196 207 213 203 197 211 217 217 216 211 205 197 185 179 179 175 171 167 191 210 222 227 240 241 230 226 236 239 284 294 297 300 299 294
241 232 211 200 210 222 202 201 212 215 214 217 215 207 198 190 188 184 184 182 181 175 170 184 207 223 229 232 237 241 239 238 249 284 297 298 300 302
236 229 223 216 213 215 215 209 208 209 212 215 211 204 198 195 193 190 191 194 200 192 178 174 164 155 179 244 231 235 237 238 249 275 284 280 279 286
234 229 224 221 219 216 214 211 209 209 208 207 207 205 201 199 194 190 192 198 201 197 187 178 179 184 193 189 310 244 233 240 256 269 273 275 276 279
228 231 228 223 221 219 215 213 211 208 206 205 205 204 201 200 196 193 193 197 198 193 185 184 195 208 221 218 175 240 250 246 258 261 266 275 281 287
231 231 230 227 223 219 215 213 210 206 204 204 203 202 200 198 197 196 195 195 191 185 183 186 198 210 229 242 211 180 208 245 257 268 277 282 281 272
237 235 233 230 226 221 216 211 207 204 201 201 201 199 198 197 197 197 193 184 187 187 191 191 177 187 201 201 213 208 187 181 244 276 290 288 286 280
244 240 235 231 226 221 215 209 207 205 201 201 200 197 196 196 195 193 189 185 190 192 190 172 159 178 197 213 227 227 219 202 198 209 234 257 281 292
249 245 240 231 223 219 213 209 207 205 202 199 197 195 193 193 192 190 188 187 186 184 179 172 174 186 200 212 224 232 237 246 258 255 245 215 225 250
Height
1506 1505 1505 1504 1504 1504 1504 1505 1506 1506 1507 1509 1509 1510 1511 1512 1513 1515 1516 1517 1518 1520 1521 1523 1525 1526 1528 1529 1531 1533 1535 1536 1538 1539 1541 1542 1543 1544
1505 1505 1504 1504 1504 1503 1503 1504 1505 1506 1506 1508 1508 1509 1510 1511 1512 1513 1514 1515 1516 1517 1519 1520 1522 1523 1525 1526 1528 1530 1531 1533 1534 1536 1537 1538 1539 1540
1506 1505 1504 1503 1503 1503 1503 1503 1504 1505 1506 1507 1507 1508 1509 1510 1510 1511 1512 1513 1514 1515 1516 1518 1519 1520 1522 1523 1525 1526 1528 1529 1531 1532 1533 1534 1535 1536
1505 1504 1504 1503 1502 1502 1502 1503 1503 1504 1505 1505 1506 1507 1508 1508 1508 1509 1510 1511 1512 1512 1514 1515 1516 1518 1519 1520 1521 1523 1524 1526 1527 1528 1529 1530 1531 1532
1504 1503 1503 1502 1502 1502 1501 1502 1502 1503 1504 1505 1505 1505 1506 1506 1507 1507 1509 1509 1510 1511 1512 1513 1514 1515 1516 1517 1518 1519 1520 1522 1523 1524 1525 1526 1527 1528
1503 1502 1502 1502 1502 1501 1501 1501 1501 1502 1502 1503 1504 1504 1504 1504 1505 1506 1507 1508 1509 1509 1510 1511 1511 1512 1513 1514 1515 1516 1517 1518 1519 1520 1521 1522 1523 1524
1501 1501 1500 1500 1500 1500 1500 1501 1500 1501 1501 1502 1502 1503 1503 1503 1504 1505 1506 1506 1507 1507 1508 1509 1510 1510 1511 1511 1512 1512 1514 1515 1516 1516 1517 1518 1519 1519
1500 1499 1499 1498 1498 1498 1498 1498 1499 1499 1500 1500 1500 1501 1501 1502 1502 1503 1504 1505 1506 1506 1507 1508 1508 1509 1509 1510 1509 1510 1511 1512 1512 1513 1514 1514 1515 1515
1497 1497 1497 1496 1496 1496 1496 1496 1496 1497 1497 1498 1499 1499 1499 1499 1500 1501 1502 1503 1504 1504 1505 1506 1506 1507 1507 1506 1507 1508 1508 1509 1509 1510 1510 1511 1511 1511
1493 1493 1493 1493 1493 1494 1494 1494 1494 1494 1495 1495 1496 1497 1497 1497 1498 1499 1499 1500 1501 1501 1502 1504 1504 1505 1505 1504 1504 1505 1505 1506 1506 1506 1507 1507 1507 1508
1488 1489 1489 1490 1489 1490 1491 1491 1492 1492 1492 1492 1493 1493 1493 1494 1495 1496 1497 1498 1499 1500 1500 1501 1502 1502 1503 1503 1502 1502 1503 1503 1503 1503 1504 1504 1504 1504
1483 1483 1483 1484 1485 1485 1487 1488 1488 1489 1489 1489 1489 1490 1490 1491 1492 1493 1495 1496 1497 1498 1497 1498 1499 1500 1501 1501 1501 1501 1500 1500 1500 1500 1500 1500 1500 1501
1477 1477 1478 1478 1479 1480 1482 1483 1484 1485 1486 1486 1487 1487 1487 1488 1489 1490 1491 1492 1494 1495 1495 1496 1497 1498 1499 1499 1499 1499 1499 1498 1498 1497 1497 1496 1497 1497
1470 1471 1472 1472 1473 1475 1476 1477 1479 1480 1481 1482 1483 1483 1484 1485 1486 1487 1488 1489 1490 1491 1492 1493 1494 1495 1496 1496 1496 1496 1496 1495 1495 1495 1494 1493 1493 1492
1462 1463 1465 1466 1467 1468 1469 1471 1473 1474 1475 1477 1478 1479 1480 1481 1482 1483 1484 1485 1486 1487 1488 1489 1490 1491 1492 1493 1493 1493 1493 1492 1492 1491 1491 1490 1490 1489
1454 1455 1457 1458 1460 1461 1462 1464 1465 1467 1469 1471 1472 1474 1475 1476 1477 1478 1480 1481 1482 1483 1484 1485 1486 1487 1488 1488 1489 1489 1489 1489 1488 1488 1487 1486 1486 1485
1445 1447 1448 1449 1450 1452 1454 1456 1457 1460 1461 1464 1466 1467 1469 1470 1472 1474 1475 1477 1478 1479 1480 1481 1481 1482 1483 1484 1485 1485 1486 1485 1485 1484 1483 1482 1482 1481
1437 1437 1438 1439 1441 1443 1445 1447 1449 1451 1453 1456 1458 1461 1462 1464 1466 1468 1470 1471 1473 1475 1476 1476 1477 1479 1480 1480 1481 1481 1481 1481 1481 1480 1479 1478 1478 1477
1426 1427 1428 1430 1432 1434 1436 1438 1440 1443 1445 1448 1450 1453 1455 1457 1460 1461 1463 1466 1468 1469 1471 1472 1473 1475 1477 1477 1476 1476 1477 1477 1476 1475 1475 1474 1473 1472
1415 1417 1418 1420 1422 1424 1427 1429 1432 1434 1437 1439 1442 1445 1447 1450 1452 1455 1457 1459 1461 1463 1465 1467 1468 1470 1472 1473 1473 1471 1471 1471 1471 1471 1470 1469 1468 1466
1406 1407 1409 1411 1413 1415 1417 1420 1422 1425 1427 1430 1433 1436 1439 1442 1445 1448 1450 1453 1455 1458 1460 1461 1462 1464 1465 1467 1468 1468 1467 1466 1466 1466 1465 1464 1463 1462
1397 1398 1399 1401 1403 1405 1408 1410 1413 1416 1418 1421 1424 1428 1431 1434 1437 1441 1443 1446 1449 1452 1454 1456 1457 1459 1460 1462 1463 1464 1464 1462 1461 1460 1460 1459 1458 1457
1389 1389 1390 1391 1393 1396 1398 1400 1403 1406 1409 1412 1415 1419 1423 1426 1430 1433 1437 1440 1443 1446 1448 1450 1452 1454 1455 1457 1458 1459 1459 1458 1457 1456 1456 1454 1453 1452